Hourly Weather Kozki

Today, 22 October, Thursday

Time Temperature Precipitation Wind Pressure Humidity
00:00 +4°C° 0 mm 2 mps 740 mmHg 95%
01:00 +4°C° 0 mm 2 mps 740 mmHg 95%
02:00 +3°C° 0 mm 3 mps 740 mmHg 95%
03:00 +4°C° 0.1 mm 3 mps 740 mmHg 95%
04:00 +4°C° 0.1 mm 3 mps 739 mmHg 94%
05:00 +5°C° 0.1 mm 4 mps 739 mmHg 94%
06:00 +5°C° 0.5 mm 4 mps 739 mmHg 95%
07:00 +5°C° 0.5 mm 4 mps 738 mmHg 95%
08:00 +6°C° 0.5 mm 4 mps 738 mmHg 96%
09:00 +7°C° 0.1 mm 5 mps 738 mmHg 92%
10:00 +7°C° 0.1 mm 5 mps 738 mmHg 89%
11:00 +8°C° 0.1 mm 6 mps 737 mmHg 86%
12:00 +9°C° 0 mm 6 mps 737 mmHg 82%
13:00 +10°C° 0 mm 6 mps 737 mmHg 79%
14:00 +11°C° 0 mm 7 mps 737 mmHg 76%
15:00 +10°C° 0 mm 6 mps 737 mmHg 79%
16:00 +10°C° 0 mm 6 mps 736 mmHg 82%
17:00 +10°C° 0 mm 6 mps 736 mmHg 85%
18:00 +10°C° 0 mm 6 mps 736 mmHg 84%
19:00 +10°C° 0 mm 7 mps 736 mmHg 84%
20:00 +11°C° 0 mm 7 mps 737 mmHg 83%
21:00 +10°C° 0 mm 7 mps 737 mmHg 85%
22:00 +10°C° 0 mm 7 mps 737 mmHg 86%
23:00 +10°C° 0 mm 6 mps 737 mmHg 88%

Tomorrow, 23 October, Friday

Time Temperature Precipitation Wind Pressure Humidity
00:00 +10°C° 0 mm 6 mps 737 mmHg 89%
01:00 +9°C° 0 mm 5 mps 738 mmHg 91%
02:00 +9°C° 0 mm 5 mps 738 mmHg 92%
03:00 +9°C° 0 mm 5 mps 738 mmHg 93%
04:00 +8°C° 0 mm 4 mps 738 mmHg 94%
05:00 +8°C° 0 mm 4 mps 738 mmHg 95%
06:00 +8°C° 0 mm 4 mps 738 mmHg 95%
07:00 +8°C° 0 mm 4 mps 737 mmHg 95%
08:00 +8°C° 0 mm 4 mps 737 mmHg 95%
09:00 +9°C° 0 mm 5 mps 737 mmHg 91%
10:00 +10°C° 0 mm 5 mps 737 mmHg 86%
11:00 +13°C° 0 mm 6 mps 736 mmHg 82%
12:00 +11°C° 1.1 mm 6 mps 736 mmHg 85%
13:00 +11°C° 1.1 mm 6 mps 735 mmHg 88%
14:00 +11°C° 1.1 mm 6 mps 735 mmHg 91%
15:00 +11°C° 1.3 mm 6 mps 735 mmHg 90%
16:00 +11°C° 1.3 mm 6 mps 735 mmHg 90%
17:00 +10°C° 1.3 mm 6 mps 735 mmHg 89%
18:00 +10°C° 0.1 mm 5 mps 735 mmHg 90%
19:00 +9°C° 0.1 mm 5 mps 735 mmHg 90%
20:00 +9°C° 0.1 mm 5 mps 736 mmHg 91%
21:00 +8°C° 0 mm 5 mps 736 mmHg 91%
22:00 +8°C° 0 mm 4 mps 736 mmHg 91%
23:00 +7°C° 0 mm 4 mps 736 mmHg 91%

Day after tomorrow, 24 October, Saturday

Time Temperature Precipitation Wind Pressure Humidity
00:00 +7°C° 0 mm 4 mps 737 mmHg 92%
01:00 +7°C° 0 mm 3 mps 737 mmHg 94%
02:00 +7°C° 0 mm 3 mps 737 mmHg 95%
03:00 +5°C° 0 mm 3 mps 737 mmHg 96%
04:00 +5°C° 0 mm 3 mps 737 mmHg 96%
05:00 +6°C° 0 mm 2 mps 737 mmHg 97%
06:00 +6°C° 0 mm 2 mps 737 mmHg 97%
07:00 +6°C° 0 mm 2 mps 738 mmHg 96%
08:00 +6°C° 0 mm 2 mps 738 mmHg 96%
09:00 +7°C° 0 mm 2 mps 738 mmHg 92%
10:00 +8°C° 0 mm 2 mps 738 mmHg 88%
11:00 +9°C° 0 mm 2 mps 738 mmHg 84%
12:00 +10°C° 0 mm 2 mps 738 mmHg 82%
13:00 +10°C° 0 mm 2 mps 737 mmHg 80%
14:00 +12°C° 0 mm 2 mps 737 mmHg 78%
15:00 +10°C° 1.1 mm 2 mps 737 mmHg 84%
16:00 +10°C° 1.1 mm 1 mps 736 mmHg 90%
17:00 +9°C° 1.1 mm 1 mps 736 mmHg 96%
18:00 +9°C° 1.8 mm 1 mps 736 mmHg 96%
19:00 +9°C° 1.8 mm 1 mps 736 mmHg 97%
20:00 +9°C° 1.8 mm 1 mps 736 mmHg 97%
21:00 +9°C° 0.2 mm 1 mps 737 mmHg 97%
22:00 +9°C° 0.2 mm 1 mps 737 mmHg 97%
23:00 +8°C° 0.2 mm 1 mps 737 mmHg 96%

, 25 October, Sunday

Time Temperature Precipitation Wind Pressure Humidity
00:00 +7°C° 0 mm 2 mps 737 mmHg 97%
01:00 +7°C° 0 mm 2 mps 737 mmHg 97%
02:00 +5°C° 0 mm 3 mps 737 mmHg 97%
03:00 +7°C° 0 mm 3 mps 738 mmHg 95%
04:00 +7°C° 0 mm 4 mps 738 mmHg 93%
05:00 +7°C° 0 mm 4 mps 738 mmHg 91%
06:00 +7°C° 0 mm 4 mps 739 mmHg 90%
07:00 +7°C° 0 mm 4 mps 739 mmHg 90%
08:00 +7°C° 0 mm 4 mps 739 mmHg 89%
09:00 +7°C° 0 mm 4 mps 740 mmHg 87%
10:00 +7°C° 0 mm 5 mps 741 mmHg 85%
11:00 +8°C° 0 mm 5 mps 741 mmHg 82%
12:00 +8°C° 0 mm 4 mps 741 mmHg 81%
13:00 +8°C° 0 mm 4 mps 742 mmHg 80%
14:00 +9°C° 0 mm 3 mps 742 mmHg 79%
15:00 +9°C° 0 mm 3 mps 742 mmHg 81%
16:00 +9°C° 0 mm 2 mps 743 mmHg 83%
17:00 +8°C° 0 mm 2 mps 743 mmHg 84%
18:00 +9°C° 0 mm 1 mps 743 mmHg 84%
19:00 +9°C° 0 mm 1 mps 744 mmHg 84%
20:00 +9°C° 0 mm 1 mps 744 mmHg 84%
21:00 +8°C° 0 mm 1 mps 744 mmHg 85%
22:00 +8°C° 0 mm 1 mps 745 mmHg 86%
23:00 +8°C° 0 mm 1 mps 745 mmHg 87%

25 October, Sunday

Time Temperature Precipitation Wind Pressure Humidity
00:00 +7°C° 0 mm 2 mps 737 mmHg 97%
01:00 +7°C° 0 mm 2 mps 737 mmHg 97%
02:00 +5°C° 0 mm 3 mps 737 mmHg 97%
03:00 +7°C° 0 mm 3 mps 738 mmHg 95%
04:00 +7°C° 0 mm 4 mps 738 mmHg 93%
05:00 +7°C° 0 mm 4 mps 738 mmHg 91%
06:00 +7°C° 0 mm 4 mps 739 mmHg 90%
07:00 +7°C° 0 mm 4 mps 739 mmHg 90%
08:00 +7°C° 0 mm 4 mps 739 mmHg 89%
09:00 +7°C° 0 mm 4 mps 740 mmHg 87%
10:00 +7°C° 0 mm 5 mps 741 mmHg 85%
11:00 +8°C° 0 mm 5 mps 741 mmHg 82%
12:00 +8°C° 0 mm 4 mps 741 mmHg 81%
13:00 +8°C° 0 mm 4 mps 742 mmHg 80%
14:00 +9°C° 0 mm 3 mps 742 mmHg 79%
15:00 +9°C° 0 mm 3 mps 742 mmHg 81%
16:00 +9°C° 0 mm 2 mps 743 mmHg 83%
17:00 +8°C° 0 mm 2 mps 743 mmHg 84%
18:00 +9°C° 0 mm 1 mps 743 mmHg 84%
19:00 +9°C° 0 mm 1 mps 744 mmHg 84%
20:00 +9°C° 0 mm 1 mps 744 mmHg 84%
21:00 +8°C° 0 mm 1 mps 744 mmHg 85%
22:00 +8°C° 0 mm 1 mps 745 mmHg 86%
23:00 +8°C° 0 mm 1 mps 745 mmHg 87%

26 October, Monday

Time Temperature Precipitation Wind Pressure Humidity
00:00 +7°C° 0 mm 1 mps 745 mmHg 89%
01:00 +7°C° 0 mm 1 mps 745 mmHg 90%
02:00 +7°C° 0 mm 1 mps 745 mmHg 91%
03:00 +7°C° 0 mm 1 mps 745 mmHg 92%
04:00 +5°C° 0 mm 2 mps 745 mmHg 93%
05:00 +5°C° 0 mm 2 mps 746 mmHg 94%
06:00 +5°C° 0 mm 2 mps 746 mmHg 94%
07:00 +5°C° 0 mm 2 mps 746 mmHg 95%
08:00 +5°C° 0 mm 2 mps 746 mmHg 95%
09:00 +7°C° 0 mm 2 mps 746 mmHg 90%
10:00 +8°C° 0 mm 3 mps 746 mmHg 85%
11:00 +10°C° 0 mm 3 mps 746 mmHg 79%
12:00 +10°C° 0 mm 4 mps 746 mmHg 77%
13:00 +10°C° 0 mm 4 mps 746 mmHg 75%
14:00 +10°C° 0 mm 4 mps 746 mmHg 73%
15:00 +8°C° 0 mm 4 mps 746 mmHg 77%
16:00 +8°C° 0 mm 3 mps 746 mmHg 81%
17:00 +7°C° 0 mm 3 mps 746 mmHg 85%
18:00 +7°C° 0 mm 3 mps 746 mmHg 87%
19:00 +5°C° 0 mm 3 mps 746 mmHg 89%
20:00 +5°C° 0 mm 4 mps 746 mmHg 91%
21:00 +5°C° 0 mm 4 mps 746 mmHg 91%
22:00 +5°C° 0 mm 4 mps 745 mmHg 91%
23:00 +4°C° 0 mm 4 mps 745 mmHg 91%

27 October, Tuesday

Time Temperature Precipitation Wind Pressure Humidity
00:00 +4°C° 0 mm 4 mps 745 mmHg 91%
01:00 +4°C° 0 mm 4 mps 745 mmHg 90%
02:00 +4°C° 0 mm 4 mps 745 mmHg 90%
03:00 +4°C° 0 mm 4 mps 745 mmHg 89%
04:00 +4°C° 0 mm 4 mps 745 mmHg 89%
05:00 +4°C° 0 mm 4 mps 745 mmHg 89%
06:00 +3°C° 0 mm 5 mps 745 mmHg 88%
07:00 +5°C° 0 mm 5 mps 745 mmHg 87%
08:00 +5°C° 0 mm 5 mps 745 mmHg 86%
09:00 +6°C° 0 mm 5 mps 745 mmHg 84%
10:00 +7°C° 0 mm 5 mps 744 mmHg 81%
11:00 +8°C° 0 mm 5 mps 744 mmHg 78%
12:00 +8°C° 0 mm 5 mps 744 mmHg 78%
13:00 +8°C° 0 mm 5 mps 744 mmHg 77%
14:00 +9°C° 0 mm 5 mps 744 mmHg 77%
15:00 +8°C° 0 mm 5 mps 744 mmHg 79%
16:00 +8°C° 0 mm 5 mps 744 mmHg 81%
17:00 +7°C° 0 mm 5 mps 744 mmHg 84%
18:00 +7°C° 0 mm 5 mps 744 mmHg 84%
19:00 +7°C° 0 mm 4 mps 744 mmHg 85%
20:00 +6°C° 0 mm 4 mps 744 mmHg 86%
21:00 +6°C° 0 mm 4 mps 744 mmHg 87%
22:00 +6°C° 0 mm 4 mps 744 mmHg 88%
23:00 +6°C° 0 mm 4 mps 744 mmHg 89%
Show more